FW3276 Weather Reports


time (UTC)temp
C
wind
direction
speed
KPH
gust
KPH
rain 1hr
cm
rain 24hr
cm
rain mn
cm
humidity
%
barometer
mb
20260504204546 21 261 9.7 19.3 0.00 0.00 0.00 26 1008.0
20260504203048 20 196 6.4 19.3 0.00 0.00 0.00 27 1008.2
20260504201544 21 223 6.4 25.7 0.00 0.00 0.00 26 1008.4
20260504200040 20 182 8.0 24.1 0.00 0.00 0.00 31 1008.4
20260504194539 21 257 8.0 25.7 0.00 0.00 0.00 26 1008.7
20260504193115 20 224 16.1 37.0 0.00 0.00 0.00 26 1008.8
20260504191537 21 220 9.7 27.4 0.00 0.00 0.00 28 1009.0
20260504190036 21 248 11.3 24.1 0.00 0.00 0.00 27 1009.0
20260504184531 20 228 6.4 25.7 0.00 0.00 0.00 34 1009.2
20260504183029 20 254 9.7 25.7 0.00 0.00 0.00 31 1009.5
20260504181528 20 157 11.3 30.6 0.00 0.00 0.00 26 1009.6
20260504180027 20 209 9.7 22.5 0.00 0.00 0.00 28 1009.8
20260504174523 19 232 8.0 30.6 0.00 0.00 0.00 30 1009.9
20260504173022 18 277 9.7 20.9 0.00 0.00 0.00 26 1010.1
20260504171525 19 180 6.4 24.1 0.00 0.00 0.00 30 1010.4
20260504100104 1 248 0.0 0.0 0.00 0.00 0.00 58 1012.8
20260504090108 1 248 0.0 0.0 0.00 0.00 0.00 58 1013.0
20260504081554 2 248 0.0 0.0 0.00 0.00 0.00 59 1013.1
20260504044526 4 244 1.6 4.8 0.00 0.00 0.00 52 1013.0
20260504043033 5 244 0.0 1.6 0.00 0.00 0.00 51 1012.8
20260504041522 5 244 0.0 0.0 0.00 0.00 0.00 48 1012.9
20260504040023 5 244 0.0 1.6 0.00 0.00 0.00 47 1012.8
20260504034518 6 244 0.0 0.0 0.00 0.00 0.00 46 1012.6
20260504033019 6 244 0.0 0.0 0.00 0.00 0.00 45 1012.5
20260504031517 6 244 0.0 1.6 0.00 0.00 0.00 44 1012.6
20260504030017 6 244 0.0 3.2 0.00 0.00 0.00 43 1012.5
20260504024516 7 244 0.0 3.2 0.00 0.00 0.00 43 1012.6
20260504023019 7 244 0.0 3.2 0.00 0.00 0.00 43 1012.6
20260504021515 7 244 3.2 8.0 0.00 0.00 0.00 41 1012.6
20260504020017 7 244 3.2 8.0 0.00 0.00 0.00 41 1012.5
20260504014514 8 234 1.6 6.4 0.00 0.00 0.00 40 1012.5
20260504013018 8 248 1.6 11.3 0.00 0.00 0.00 38 1012.4
20260504011520 8 261 1.6 9.7 0.00 0.00 0.00 37 1012.3
20260504010012 9 261 1.6 9.7 0.00 0.00 0.00 35 1012.1
20260504004511 10 260 3.2 11.3 0.00 0.00 0.00 32 1012.1
20260504003012 10 264 3.2 12.9 0.00 0.00 0.00 32 1011.8
20260504001511 11 271 3.2 19.3 0.00 0.00 0.00 31 1011.7
20260504000011 11 273 4.8 16.1 0.00 0.00 0.00 29 1011.7
20260503234510 11 251 6.4 14.5 0.00 0.00 0.00 27 1011.5
20260503233010 12 294 9.7 22.5 0.00 0.00 0.00 27 1011.2
20260503231514 12 257 9.7 20.9 0.00 0.00 0.00 26 1011.2
20260503230013 12 227 8.0 27.4 0.00 0.00 0.00 26 1011.2
20260503224512 12 303 6.4 25.7 0.00 0.00 0.00 26 1011.2
20260503223009 13 271 6.4 25.7 0.00 0.00 0.00 26 1011.1
20260503221508 13 300 3.2 20.9 0.00 0.00 0.00 25 1011.1
20260503220008 13 288 9.7 29.0 0.00 0.00 0.00 25 1011.2
20260503214506 13 336 4.8 24.1 0.00 0.00 0.00 25 1011.1
20260503213006 13 323 14.5 27.4 0.00 0.00 0.00 24 1011.0
20260503211505 14 234 9.7 24.1 0.00 0.00 0.00 23 1010.9
20260503210003 14 245 16.1 37.0 0.00 0.00 0.00 24 1011.0